Вернуться в каталог

THORAD DELTA 1 DEB

АктивенLEO
NORAD 8156·DEBRIS·🇺🇸 United States

Запущен Nov 15, 1974 с Vandenberg Space Force Base

Loading…

Ближайшие Пролёты (ближайшие 24 часа)

TLE

СвежийSource: Space-Track

Эпоха: Sep 14, 2026, 10:40 UTC

1 08156U 74089W   26257.44465366  .00000060  00000-0  55567-3 0  9995
2 08156 101.9413 249.7941 0053152 184.2216 331.8974 12.68307921394614

Отслеживайте THORAD DELTA 1 DEB в реальном времени с AllMySat

Download on the App Store